owner,sensor,date,latitude,longitude,vertical_datum,wind_speed,wind_to_direction,wind_speed_of_gust,qcFlag 
TABS,ioos:station:wmo:42045:1,2009-05-01T00:00:00Z,26.2168,-96.4998,4.0,7.199236071,134.0998689,8.84,'11111222,11111222,11111222' 
TABS,ioos:station:wmo:42045:1,2009-05-01T00:30:00Z,26.2168,-96.4998,4.0,7.684920299,132.7855657,9.27,'11111222,11111222,11111222' 
TABS,ioos:station:wmo:42045:1,2009-05-01T01:00:00Z,26.2168,-96.4998,4.0,7.994823325,133.0742853,9.67,'11111222,11111222,11111222' 
TABS,ioos:station:wmo:42045:1,2009-05-01T01:30:00Z,26.2168,-96.4998,4.0,8.534939953,129.7715181,10.27,'11111222,11111222,11111222' 
TABS,ioos:station:wmo:42045:1,2009-05-01T02:00:00Z,26.2168,-96.4998,4.0,8.388003338,133.8410342,9.98,'11111222,11111222,11111222' 
TABS,ioos:station:wmo:42045:1,2009-05-01T02:30:00Z,26.2168,-96.4998,4.0,7.93419183,134.3875514,9.44,'11111222,11111222,11111222' 
TABS,ioos:station:wmo:42045:1,2009-05-01T03:00:00Z,26.2168,-96.4998,4.0,8.048509179,140.4955182,9.81,'11111222,11111222,11111222' 
TABS,ioos:station:wmo:42045:1,2009-05-01T03:30:00Z,26.2168,-96.4998,4.0,9.359556613,141.5508211,11.06,'11111222,11111222,11111222' 
TABS,ioos:station:wmo:42045:1,2009-05-01T04:00:00Z,26.2168,-96.4998,4.0,10.04731307,144.6018274,12.2,'11111222,11111222,11111222' 
TABS,ioos:station:wmo:42045:1,2009-05-01T04:30:00Z,26.2168,-96.4998,4.0,9.882433911,144.8467827,11.8,'11111222,11111222,11111222' 
TABS,ioos:station:wmo:42045:1,2009-05-01T05:00:00Z,26.2168,-96.4998,4.0,10.24389086,145.3794239,12.07,'11111222,11111222,11111222' 
TABS,ioos:station:wmo:42045:1,2009-05-01T05:30:00Z,26.2168,-96.4998,4.0,10.60773774,148.4529369,12.86,'11111222,11111222,11111222' 
TABS,ioos:station:wmo:42045:1,2009-05-01T06:00:00Z,26.2168,-96.4998,4.0,10.03997012,153.3076144,12.83,'11111222,11111222,11111222' 
TABS,ioos:station:wmo:42045:1,2009-05-01T06:30:00Z,26.2168,-96.4998,4.0,9.58840967,153.7559026,11.63,'11111222,11111222,11111222' 
TABS,ioos:station:wmo:42045:1,2009-05-01T07:00:00Z,26.2168,-96.4998,4.0,9.45524722,152.5408965,11.65,'11111222,11111222,11111222' 
TABS,ioos:station:wmo:42045:1,2009-05-01T07:30:00Z,26.2168,-96.4998,4.0,9.10624511,157.1238813,11.33,'11111222,11111222,11111222' 
TABS,ioos:station:wmo:42045:1,2009-05-01T08:00:00Z,26.2168,-96.4998,4.0,9.275198111,161.9755291,11.6,'11111222,11111222,11111222' 
TABS,ioos:station:wmo:42045:1,2009-05-01T08:30:00Z,26.2168,-96.4998,4.0,9.593669788,160.2620678,11.55,'11111222,11111222,11111222' 
TABS,ioos:station:wmo:42045:1,2009-05-01T09:00:00Z,26.2168,-96.4998,4.0,9.231884965,160.6428441,11.59,'11111222,11111222,11111222' 
TABS,ioos:station:wmo:42045:1,2009-05-01T09:30:00Z,26.2168,-96.4998,4.0,8.327262455,153.7736987,10.17,'11111222,11111222,11111222' 
TABS,ioos:station:wmo:42045:1,2009-05-01T10:00:00Z,26.2168,-96.4998,4.0,7.876814077,154.5087791,10.14,'11111222,11111222,11111222' 
TABS,ioos:station:wmo:42045:1,2009-05-01T10:30:00Z,26.2168,-96.4998,4.0,7.739024486,155.8197815,9.95,'11111222,11111222,11111222' 
TABS,ioos:station:wmo:42045:1,2009-05-01T11:00:00Z,26.2168,-96.4998,4.0,8.442612155,155.9550899,10.29,'11111222,11111222,11111222' 
TABS,ioos:station:wmo:42045:1,2009-05-01T11:30:00Z,26.2168,-96.4998,4.0,9.111580543,157.2062627,11.4,'11111222,11111222,11111222' 
TABS,ioos:station:wmo:42045:1,2009-05-01T12:00:00Z,26.2168,-96.4998,4.0,8.184680812,160.8126232,9.59,'11111222,11111222,11111222' 
TABS,ioos:station:wmo:42045:1,2009-05-01T12:30:00Z,26.2168,-96.4998,4.0,8.881812878,158.258747,10.65,'11111222,11111222,11111222' 
TABS,ioos:station:wmo:42045:1,2009-05-01T13:00:00Z,26.2168,-96.4998,4.0,8.128130166,158.6439086,9.99,'11111222,11111222,11111222' 
TABS,ioos:station:wmo:42045:1,2009-05-01T13:30:00Z,26.2168,-96.4998,4.0,8.919938341,156.3377861,11.28,'11111222,11111222,11111222' 
TABS,ioos:station:wmo:42045:1,2009-05-01T14:00:00Z,26.2168,-96.4998,4.0,8.278870696,154.3018641,9.87,'11111222,11111222,11111222' 
TABS,ioos:station:wmo:42045:1,2009-05-01T14:30:00Z,26.2168,-96.4998,4.0,9.33120571,158.3014709,11.56,'11111222,11111222,11111222' 
TABS,ioos:station:wmo:42045:1,2009-05-01T15:00:00Z,26.2168,-96.4998,4.0,9.167600558,163.7200444,11.49,'11111222,11111222,11111222' 
TABS,ioos:station:wmo:42045:1,2009-05-01T15:30:00Z,26.2168,-96.4998,4.0,7.228623659,170.5248798,9.56,'11111222,11111222,11111222' 
TABS,ioos:station:wmo:42045:1,2009-05-01T16:00:00Z,26.2168,-96.4998,4.0,6.345470826,173.9392304,7.6,'11111222,11111222,11111222' 
TABS,ioos:station:wmo:42045:1,2009-05-01T16:30:00Z,26.2168,-96.4998,4.0,6.93956771,173.8788573,8.37,'11111222,11111222,11111222' 
TABS,ioos:station:wmo:42045:1,2009-05-01T17:00:00Z,26.2168,-96.4998,4.0,7.036199258,166.4379964,8.68,'11111222,11111222,11111222' 
TABS,ioos:station:wmo:42045:1,2009-05-01T17:30:00Z,26.2168,-96.4998,4.0,7.155955562,164.9347312,8.94,'11111222,11111222,11111222' 
TABS,ioos:station:wmo:42045:1,2009-05-01T18:00:00Z,26.2168,-96.4998,4.0,6.635977697,164.3513491,7.98,'11111222,11111222,11111222' 
TABS,ioos:station:wmo:42045:1,2009-05-01T18:30:00Z,26.2168,-96.4998,4.0,6.478965967,166.8863135,7.97,'11111222,11111222,11111222' 
TABS,ioos:station:wmo:42045:1,2009-05-01T19:00:00Z,26.2168,-96.4998,4.0,6.81560709,162.4957787,8.35,'11111222,11111222,11111222' 
TABS,ioos:station:wmo:42045:1,2009-05-01T19:30:00Z,26.2168,-96.4998,4.0,7.440329294,159.3000056,8.81,'11111222,11111222,11111222' 
TABS,ioos:station:wmo:42045:1,2009-05-01T20:00:00Z,26.2168,-96.4998,4.0,7.125461389,157.64637,8.24,'11111222,11111222,11111222' 
TABS,ioos:station:wmo:42045:1,2009-05-01T20:30:00Z,26.2168,-96.4998,4.0,6.781917133,160.1759439,8.34,'11111222,11111222,11111222' 
TABS,ioos:station:wmo:42045:1,2009-05-01T21:00:00Z,26.2168,-96.4998,4.0,6.508855506,160.6188156,8.51,'11111222,11111222,11111222' 
TABS,ioos:station:wmo:42045:1,2009-05-01T21:30:00Z,26.2168,-96.4998,4.0,6.804241324,154.8663731,7.88,'11111222,11111222,11111222' 
TABS,ioos:station:wmo:42045:1,2009-05-01T22:00:00Z,26.2168,-96.4998,4.0,6.866563915,150.2243498,8.4,'11111222,11111222,11111222' 
TABS,ioos:station:wmo:42045:1,2009-05-01T22:30:00Z,26.2168,-96.4998,4.0,7.35114957,148.2344932,8.92,'11111222,11111222,11111222' 
TABS,ioos:station:wmo:42045:1,2009-05-01T23:00:00Z,26.2168,-96.4998,4.0,7.746650889,145.83841,9.92,'11111222,11111222,11111222' 
TABS,ioos:station:wmo:42045:1,2009-05-01T23:30:00Z,26.2168,-96.4998,4.0,8.343027029,145.7959462,9.87,'11111222,11111222,11111222' 
TABS,ioos:station:wmo:42045:1,2009-05-02T00:00:00Z,26.2168,-96.4998,4.0,8.338974757,145.1095905,10.61,'11111222,11111222,11111222' 
TABS,ioos:station:wmo:42045:1,2009-05-02T00:30:00Z,26.2168,-96.4998,4.0,8.717855241,145.5628503,10.35,'11111222,11111222,11111222' 
TABS,ioos:station:wmo:42045:1,2009-05-02T01:00:00Z,26.2168,-96.4998,4.0,8.736234887,148.7665842,10.56,'11111222,11111222,11111222' 
TABS,ioos:station:wmo:42045:1,2009-05-02T01:30:00Z,26.2168,-96.4998,4.0,9.023774155,155.0255695,11.28,'11111222,11111222,11111222' 
TABS,ioos:station:wmo:42045:1,2009-05-02T02:00:00Z,26.2168,-96.4998,4.0,9.279924569,153.8493996,11.28,'11111222,11111222,11111222' 
TABS,ioos:station:wmo:42045:1,2009-05-02T02:30:00Z,26.2168,-96.4998,4.0,9.51758898,154.2159878,11.55,'11111222,11111222,11111222' 
TABS,ioos:station:wmo:42045:1,2009-05-02T03:00:00Z,26.2168,-96.4998,4.0,9.141772257,150.7995744,11.24,'11111222,11111222,11111222' 
TABS,ioos:station:wmo:42045:1,2009-05-02T03:30:00Z,26.2168,-96.4998,4.0,9.164594917,152.5125309,10.92,'11111222,11111222,11111222' 
TABS,ioos:station:wmo:42045:1,2009-05-02T04:00:00Z,26.2168,-96.4998,4.0,10.28242189,157.6504365,13.19,'11111222,11111222,11111222' 
TABS,ioos:station:wmo:42045:1,2009-05-02T04:30:00Z,26.2168,-96.4998,4.0,10.20027451,156.3001288,12.08,'11111222,11111222,11111222' 
TABS,ioos:station:wmo:42045:1,2009-05-02T05:00:00Z,26.2168,-96.4998,4.0,10.41023535,161.4608778,13.57,'11111222,11111222,11111222' 
TABS,ioos:station:wmo:42045:1,2009-05-02T05:30:00Z,26.2168,-96.4998,4.0,9.446994231,162.5051222,11.48,'11111222,11111222,11111222' 
TABS,ioos:station:wmo:42045:1,2009-05-02T06:00:00Z,26.2168,-96.4998,4.0,8.788065771,161.8333285,11.29,'11111222,11111222,11111222' 
TABS,ioos:station:wmo:42045:1,2009-05-02T06:30:00Z,26.2168,-96.4998,4.0,9.894447938,163.5616903,12.33,'11111222,11111222,11111222' 
TABS,ioos:station:wmo:42045:1,2009-05-02T07:00:00Z,26.2168,-96.4998,4.0,9.811793924,165.0575436,12.88,'11111222,11111222,11111222' 
TABS,ioos:station:wmo:42045:1,2009-05-02T07:30:00Z,26.2168,-96.4998,4.0,9.856378645,167.1624787,12.13,'11111222,11111222,11111222' 
TABS,ioos:station:wmo:42045:1,2009-05-02T08:00:00Z,26.2168,-96.4998,4.0,9.261992226,167.1493613,11.31,'11111222,11111222,11111222' 
TABS,ioos:station:wmo:42045:1,2009-05-02T08:30:00Z,26.2168,-96.4998,4.0,9.440047669,162.2370822,11.36,'11111222,11111222,11111222' 
TABS,ioos:station:wmo:42045:1,2009-05-02T09:00:00Z,26.2168,-96.4998,4.0,9.017455295,162.7106631,11.08,'11111222,11111222,11111222' 
TABS,ioos:station:wmo:42045:1,2009-05-02T09:30:00Z,26.2168,-96.4998,4.0,9.337563922,159.5663021,11.28,'11111222,11111222,11111222' 
TABS,ioos:station:wmo:42045:1,2009-05-02T10:00:00Z,26.2168,-96.4998,4.0,9.308925824,158.3131459,11.16,'11111222,11111222,11111222' 
TABS,ioos:station:wmo:42045:1,2009-05-02T10:30:00Z,26.2168,-96.4998,4.0,8.938484212,159.6392743,10.66,'11111222,11111222,11111222' 
TABS,ioos:station:wmo:42045:1,2009-05-02T11:00:00Z,26.2168,-96.4998,4.0,8.858425368,163.8771639,10.81,'11111222,11111222,11111222' 
TABS,ioos:station:wmo:42045:1,2009-05-02T11:30:00Z,26.2168,-96.4998,4.0,8.411718017,161.7807009,10.84,'11111222,11111222,11111222' 
TABS,ioos:station:wmo:42045:1,2009-05-02T12:00:00Z,26.2168,-96.4998,4.0,7.94698685,153.4674643,9.34,'11111222,11111222,11111222' 
TABS,ioos:station:wmo:42045:1,2009-05-02T12:30:00Z,26.2168,-96.4998,4.0,8.750685687,150.4178239,10.72,'11111222,11111222,11111222' 
TABS,ioos:station:wmo:42045:1,2009-05-02T13:00:00Z,26.2168,-96.4998,4.0,9.63299019,153.3554225,11.69,'11111222,11111222,11111222' 
TABS,ioos:station:wmo:42045:1,2009-05-02T13:30:00Z,26.2168,-96.4998,4.0,10.77241848,156.6480295,13.22,'11111222,11111222,11111222' 
TABS,ioos:station:wmo:42045:1,2009-05-02T14:00:00Z,26.2168,-96.4998,4.0,10.56792316,158.1686487,13.64,'11111222,11111222,11111222' 
TABS,ioos:station:wmo:42045:1,2009-05-02T14:30:00Z,26.2168,-96.4998,4.0,10.13005429,164.893947,12.19,'11111222,11111222,11111222' 
TABS,ioos:station:wmo:42045:1,2009-05-02T15:00:00Z,26.2168,-96.4998,4.0,10.55047392,166.2932815,12.66,'11111222,11111222,11111222' 
TABS,ioos:station:wmo:42045:1,2009-05-02T15:30:00Z,26.2168,-96.4998,4.0,10.23493039,169.7003951,12.52,'11111222,11111222,11111222' 
TABS,ioos:station:wmo:42045:1,2009-05-02T16:00:00Z,26.2168,-96.4998,4.0,10.06954319,170.7998315,12.42,'11111222,11111222,11111222' 
TABS,ioos:station:wmo:42045:1,2009-05-02T16:30:00Z,26.2168,-96.4998,4.0,10.10236606,170.7150648,11.93,'11111222,11111222,11111222' 
TABS,ioos:station:wmo:42045:1,2009-05-02T17:00:00Z,26.2168,-96.4998,4.0,10.48008588,173.3702372,12.75,'11111222,11111222,11111222' 
TABS,ioos:station:wmo:42045:1,2009-05-02T17:30:00Z,26.2168,-96.4998,4.0,10.5066931,174.0454514,12.84,'11111222,11111222,11111222' 
TABS,ioos:station:wmo:42045:1,2009-05-02T18:00:00Z,26.2168,-96.4998,4.0,9.42212821,174.5800697,11.64,'11111222,11111222,11111222' 
TABS,ioos:station:wmo:42045:1,2009-05-02T18:30:00Z,26.2168,-96.4998,4.0,9.457378072,174.9045225,11.57,'11111222,11111222,11111222' 
TABS,ioos:station:wmo:42045:1,2009-05-02T19:00:00Z,26.2168,-96.4998,4.0,8.527156619,175.4262999,10.29,'11111222,11111222,11111222' 
TABS,ioos:station:wmo:42045:1,2009-05-02T19:30:00Z,26.2168,-96.4998,4.0,8.319501187,175.173668,10.06,'11111222,11111222,11111222' 
TABS,ioos:station:wmo:42045:1,2009-05-02T20:00:00Z,26.2168,-96.4998,4.0,9.009245251,174.6503341,10.65,'11111222,11111222,11111222' 
TABS,ioos:station:wmo:42045:1,2009-05-02T20:30:00Z,26.2168,-96.4998,4.0,8.652236705,171.6266361,10.87,'11111222,11111222,11111222' 
TABS,ioos:station:wmo:42045:1,2009-05-02T21:00:00Z,26.2168,-96.4998,4.0,9.21627365,169.4340452,11.08,'11111222,11111222,11111222' 
TABS,ioos:station:wmo:42045:1,2009-05-02T21:30:00Z,26.2168,-96.4998,4.0,9.100428561,164.5132072,10.92,'11111222,11111222,11111222' 
TABS,ioos:station:wmo:42045:1,2009-05-02T22:00:00Z,26.2168,-96.4998,4.0,8.675096541,162.4216469,10.1,'11111222,11111222,11111222' 
TABS,ioos:station:wmo:42045:1,2009-05-02T22:30:00Z,26.2168,-96.4998,4.0,9.491101095,159.8469508,11.44,'11111222,11111222,11111222' 
TABS,ioos:station:wmo:42045:1,2009-05-02T23:00:00Z,26.2168,-96.4998,4.0,10.3608156,155.6615767,12.54,'11111222,11111222,11111222' 
TABS,ioos:station:wmo:42045:1,2009-05-02T23:30:00Z,26.2168,-96.4998,4.0,9.577055915,155.5761178,11.23,'11111222,11111222,11111222' 
TABS,ioos:station:wmo:42045:1,2009-05-03T00:00:00Z,26.2168,-96.4998,4.0,10.08341708,154.8838265,12.62,'11111222,11111222,11111222' 
TABS,ioos:station:wmo:42045:1,2009-05-03T00:30:00Z,26.2168,-96.4998,4.0,10.36673526,155.8582031,14.05,'11111222,11111222,11111222' 
TABS,ioos:station:wmo:42045:1,2009-05-03T01:00:00Z,26.2168,-96.4998,4.0,10.04757682,156.7267975,12.26,'11111222,11111222,11111222' 
TABS,ioos:station:wmo:42045:1,2009-05-03T01:30:00Z,26.2168,-96.4998,4.0,9.710926835,159.5685137,12.19,'11111222,11111222,11111222' 
TABS,ioos:station:wmo:42045:1,2009-05-03T02:00:00Z,26.2168,-96.4998,4.0,9.316335116,158.198852,11.72,'11111222,11111222,11111222' 
TABS,ioos:station:wmo:42045:1,2009-05-03T02:30:00Z,26.2168,-96.4998,4.0,8.137087931,165.8444562,9.73,'11111222,11111222,11111222' 
TABS,ioos:station:wmo:42045:1,2009-05-03T03:00:00Z,26.2168,-96.4998,4.0,7.65690538,172.4204193,9.45,'11111222,11111222,11111222' 
TABS,ioos:station:wmo:42045:1,2009-05-03T03:30:00Z,26.2168,-96.4998,4.0,7.956613601,173.7952208,9.46,'11111222,11111222,11111222' 
TABS,ioos:station:wmo:42045:1,2009-05-03T04:00:00Z,26.2168,-96.4998,4.0,8.322169188,178.6920036,10.38,'11111222,11111222,11111222' 
TABS,ioos:station:wmo:42045:1,2009-05-03T04:30:00Z,26.2168,-96.4998,4.0,10.03496388,173.4771824,12.16,'11111222,11111222,11111222' 
TABS,ioos:station:wmo:42045:1,2009-05-03T05:00:00Z,26.2168,-96.4998,4.0,10.41251651,174.8207391,12.87,'11111222,11111222,11111222' 
TABS,ioos:station:wmo:42045:1,2009-05-03T05:30:00Z,26.2168,-96.4998,4.0,12.27892911,173.5002925,14.91,'11111222,11111222,11111222' 
TABS,ioos:station:wmo:42045:1,2009-05-03T06:00:00Z,26.2168,-96.4998,4.0,8.860022573,180.1295458,11.7,'11111222,11111222,11111222' 
TABS,ioos:station:wmo:42045:1,2009-05-03T06:30:00Z,26.2168,-96.4998,4.0,7.449295269,185.0832114,9.02,'11111222,11111222,11111222' 
TABS,ioos:station:wmo:42045:1,2009-05-03T07:00:00Z,26.2168,-96.4998,4.0,8.994676203,181.8478164,11.22,'11111222,11111222,11111222' 
TABS,ioos:station:wmo:42045:1,2009-05-03T07:30:00Z,26.2168,-96.4998,4.0,7.81338595,181.6870467,10.07,'11111222,11111222,11111222' 
TABS,ioos:station:wmo:42045:1,2009-05-03T08:00:00Z,26.2168,-96.4998,4.0,7.064424959,182.0282457,8.52,'11111222,11111222,11111222' 
TABS,ioos:station:wmo:42045:1,2009-05-03T08:30:00Z,26.2168,-96.4998,4.0,6.5706088,184.5393521,8.26,'11111222,11111222,11111222' 
TABS,ioos:station:wmo:42045:1,2009-05-03T09:00:00Z,26.2168,-96.4998,4.0,5.681487481,191.3694492,7.83,'11111222,11111222,11111222' 
TABS,ioos:station:wmo:42045:1,2009-05-03T09:30:00Z,26.2168,-96.4998,4.0,6.553365548,181.8365411,7.66,'11111222,11111222,11111222' 
TABS,ioos:station:wmo:42045:1,2009-05-03T10:00:00Z,26.2168,-96.4998,4.0,5.740400683,174.1009301,6.97,'11111222,11111222,11111222' 
TABS,ioos:station:wmo:42045:1,2009-05-03T10:30:00Z,26.2168,-96.4998,4.0,5.355688565,164.0695468,7.03,'11111222,11111222,11111222' 
TABS,ioos:station:wmo:42045:1,2009-05-03T11:00:00Z,26.2168,-96.4998,4.0,5.850888821,159.490059,7.07,'11111222,11111222,11111222' 
TABS,ioos:station:wmo:42045:1,2009-05-03T11:30:00Z,26.2168,-96.4998,4.0,6.13577216,153.4769821,7.31,'11111222,11111222,11111222' 
TABS,ioos:station:wmo:42045:1,2009-05-03T12:00:00Z,26.2168,-96.4998,4.0,5.844929426,149.5744978,7.29,'11111222,11111222,11111222' 
TABS,ioos:station:wmo:42045:1,2009-05-03T12:30:00Z,26.2168,-96.4998,4.0,5.881088335,147.4992059,7.12,'11111222,11111222,11111222' 
TABS,ioos:station:wmo:42045:1,2009-05-03T13:00:00Z,26.2168,-96.4998,4.0,6.489884437,154.3433465,7.7,'11111222,11111222,11111222' 
TABS,ioos:station:wmo:42045:1,2009-05-03T13:30:00Z,26.2168,-96.4998,4.0,8.380668231,156.0655438,10.35,'11111222,11111222,11111222' 
TABS,ioos:station:wmo:42045:1,2009-05-03T14:00:00Z,26.2168,-96.4998,4.0,9.282941344,165.0807557,11.67,'11111222,11111222,11111222' 
TABS,ioos:station:wmo:42045:1,2009-05-03T14:30:00Z,26.2168,-96.4998,4.0,9.596129428,164.3419018,11.98,'11111222,11111222,11111222' 
TABS,ioos:station:wmo:42045:1,2009-05-03T15:00:00Z,26.2168,-96.4998,4.0,9.476286192,172.7252225,12.07,'11111222,11111222,11111222' 
TABS,ioos:station:wmo:42045:1,2009-05-03T15:30:00Z,26.2168,-96.4998,4.0,8.604522067,174.8660795,10.13,'11111222,11111222,11111222' 
TABS,ioos:station:wmo:42045:1,2009-05-03T16:00:00Z,26.2168,-96.4998,4.0,8.49052413,176.0155689,10.52,'11111222,11111222,11111222' 
TABS,ioos:station:wmo:42045:1,2009-05-03T16:30:00Z,26.2168,-96.4998,4.0,8.157088942,177.6113479,9.58,'11111222,11111222,11111222' 
TABS,ioos:station:wmo:42045:1,2009-05-03T17:00:00Z,26.2168,-96.4998,4.0,8.310006017,179.9312627,9.48,'11111222,11111222,11111222' 
TABS,ioos:station:wmo:42045:1,2009-05-03T17:30:00Z,26.2168,-96.4998,4.0,6.631274387,178.8769104,7.85,'11111222,11111222,11111222' 
TABS,ioos:station:wmo:42045:1,2009-05-03T18:00:00Z,26.2168,-96.4998,4.0,4.585280798,195.430643,6.38,'11111222,11111222,11111222' 
TABS,ioos:station:wmo:42045:1,2009-05-03T18:30:00Z,26.2168,-96.4998,4.0,3.579455266,208.3551059,4.43,'11111222,11111222,11111222' 
TABS,ioos:station:wmo:42045:1,2009-05-03T19:00:00Z,26.2168,-96.4998,4.0,3.89011568,197.5035618,4.82,'11111222,11111222,11111222' 
TABS,ioos:station:wmo:42045:1,2009-05-03T19:30:00Z,26.2168,-96.4998,4.0,3.423273287,196.6352907,4.23,'11111222,11111222,11111222' 
TABS,ioos:station:wmo:42045:1,2009-05-03T20:00:00Z,26.2168,-96.4998,4.0,2.253752427,183.3069492,3.07,'11111222,11111222,11111222' 
TABS,ioos:station:wmo:42045:1,2009-05-03T20:30:00Z,26.2168,-96.4998,4.0,2.637347152,161.4279054,3.48,'11111222,11111222,11111222' 
TABS,ioos:station:wmo:42045:1,2009-05-03T21:00:00Z,26.2168,-96.4998,4.0,3.08609786,152.6049079,3.8,'11111222,11111222,11111222' 
TABS,ioos:station:wmo:42045:1,2009-05-03T21:30:00Z,26.2168,-96.4998,4.0,3.389232952,157.4454184,4.13,'11111222,11111222,11111222' 
TABS,ioos:station:wmo:42045:1,2009-05-03T22:00:00Z,26.2168,-96.4998,4.0,3.469899134,146.9971869,4.36,'11111222,11111222,11111222' 
TABS,ioos:station:wmo:42045:1,2009-05-03T22:30:00Z,26.2168,-96.4998,4.0,4.556007024,126.9708392,5.54,'11111222,11111222,11111222' 
TABS,ioos:station:wmo:42045:1,2009-05-03T23:00:00Z,26.2168,-96.4998,4.0,5.627477232,123.9163154,6.55,'11111222,11111222,11111222' 
TABS,ioos:station:wmo:42045:1,2009-05-03T23:30:00Z,26.2168,-96.4998,4.0,6.214724451,125.1736262,7.37,'11111222,11111222,11111222' 
TABS,ioos:station:wmo:42045:1,2009-05-04T00:00:00Z,26.2168,-96.4998,4.0,6.040298006,121.3219948,7.6,'11111222,11111222,11111222' 
TABS,ioos:station:wmo:42045:1,2009-05-04T00:30:00Z,26.2168,-96.4998,4.0,5.826843056,118.7206806,6.96,'11111222,11111222,11111222' 
TABS,ioos:station:wmo:42045:1,2009-05-04T01:00:00Z,26.2168,-96.4998,4.0,6.167090076,120.9322387,7.43,'11111222,11111222,11111222' 
TABS,ioos:station:wmo:42045:1,2009-05-04T01:30:00Z,26.2168,-96.4998,4.0,6.286827499,125.9406041,8.31,'11111222,11111222,11111222' 
TABS,ioos:station:wmo:42045:1,2009-05-04T02:00:00Z,26.2168,-96.4998,4.0,5.338211311,129.1462517,6.58,'11111222,11111222,11111222' 
TABS,ioos:station:wmo:42045:1,2009-05-04T02:30:00Z,26.2168,-96.4998,4.0,5.626028795,127.0535452,6.45,'11111222,11111222,11111222' 
TABS,ioos:station:wmo:42045:1,2009-05-04T03:00:00Z,26.2168,-96.4998,4.0,6.35888355,131.9406539,7.6,'11111222,11111222,11111222' 
TABS,ioos:station:wmo:42045:1,2009-05-04T03:30:00Z,26.2168,-96.4998,4.0,5.966648976,137.5134582,6.91,'11111222,11111222,11111222' 
TABS,ioos:station:wmo:42045:1,2009-05-04T04:00:00Z,26.2168,-96.4998,4.0,5.338108279,142.7654635,6.31,'11111222,11111222,11111222' 
TABS,ioos:station:wmo:42045:1,2009-05-04T04:30:00Z,26.2168,-96.4998,4.0,5.905971554,139.1885594,7.01,'11111222,11111222,11111222' 
TABS,ioos:station:wmo:42045:1,2009-05-04T05:00:00Z,26.2168,-96.4998,4.0,6.666010801,143.2335414,7.73,'11111222,11111222,11111222' 
TABS,ioos:station:wmo:42045:1,2009-05-04T05:30:00Z,26.2168,-96.4998,4.0,6.326365465,142.5145353,7.21,'11111222,11111222,11111222' 
TABS,ioos:station:wmo:42045:1,2009-05-04T06:00:00Z,26.2168,-96.4998,4.0,6.777624953,149.0075306,7.71,'11111222,11111222,11111222' 
TABS,ioos:station:wmo:42045:1,2009-05-04T06:30:00Z,26.2168,-96.4998,4.0,6.09064857,146.5189481,7.59,'11111222,11111222,11111222' 
TABS,ioos:station:wmo:42045:1,2009-05-04T07:00:00Z,26.2168,-96.4998,4.0,5.948487203,144.7873287,6.95,'11111222,11111222,11111222' 
TABS,ioos:station:wmo:42045:1,2009-05-04T07:30:00Z,26.2168,-96.4998,4.0,5.191107782,136.0930157,6.58,'11111222,11111222,11111222' 
TABS,ioos:station:wmo:42045:1,2009-05-04T08:00:00Z,26.2168,-96.4998,4.0,6.099680319,140.2548664,7.57,'11111222,11111222,11111222' 
TABS,ioos:station:wmo:42045:1,2009-05-04T08:30:00Z,26.2168,-96.4998,4.0,5.68656311,136.2828398,6.85,'11111222,11111222,11111222' 
TABS,ioos:station:wmo:42045:1,2009-05-04T09:00:00Z,26.2168,-96.4998,4.0,5.915344453,138.4954683,7.33,'11111222,11111222,11111222' 
TABS,ioos:station:wmo:42045:1,2009-05-04T09:30:00Z,26.2168,-96.4998,4.0,6.425262641,140.811282,7.44,'11111222,11111222,11111222' 
TABS,ioos:station:wmo:42045:1,2009-05-04T10:00:00Z,26.2168,-96.4998,4.0,6.004839715,136.2823364,7.35,'11111222,11111222,11111222' 
TABS,ioos:station:wmo:42045:1,2009-05-04T10:30:00Z,26.2168,-96.4998,4.0,6.570700115,133.7053709,7.98,'11111222,11111222,11111222' 
TABS,ioos:station:wmo:42045:1,2009-05-04T11:00:00Z,26.2168,-96.4998,4.0,7.037414298,140.8827475,8.41,'11111222,11111222,11111222' 
TABS,ioos:station:wmo:42045:1,2009-05-04T11:30:00Z,26.2168,-96.4998,4.0,6.46304108,137.6968037,8.03,'11111222,11111222,11111222' 
TABS,ioos:station:wmo:42045:1,2009-05-04T12:00:00Z,26.2168,-96.4998,4.0,6.382632686,132.8416349,7.44,'11111222,11111222,11111222' 
TABS,ioos:station:wmo:42045:1,2009-05-04T12:30:00Z,26.2168,-96.4998,4.0,5.867478164,128.8431426,7.07,'11111222,11111222,11111222' 
TABS,ioos:station:wmo:42045:1,2009-05-04T13:00:00Z,26.2168,-96.4998,4.0,5.869258897,121.7677318,7.08,'11111222,11111222,11111222' 
TABS,ioos:station:wmo:42045:1,2009-05-04T13:30:00Z,26.2168,-96.4998,4.0,5.744162254,124.216043,7.23,'11111222,11111222,11111222' 
TABS,ioos:station:wmo:42045:1,2009-05-04T14:00:00Z,26.2168,-96.4998,4.0,6.126940509,123.1457413,7.11,'11111222,11111222,11111222' 
TABS,ioos:station:wmo:42045:1,2009-05-04T14:30:00Z,26.2168,-96.4998,4.0,5.553170266,125.6939381,6.53,'11111222,11111222,11111222' 
TABS,ioos:station:wmo:42045:1,2009-05-04T15:00:00Z,26.2168,-96.4998,4.0,4.740516849,127.7163091,5.9,'11111222,11111222,11111222' 
TABS,ioos:station:wmo:42045:1,2009-05-04T15:30:00Z,26.2168,-96.4998,4.0,4.352585439,128.8451617,5.26,'11111222,11111222,11111222' 
TABS,ioos:station:wmo:42045:1,2009-05-04T16:00:00Z,26.2168,-96.4998,4.0,2.965687104,115.3557269,3.8,'11111222,11111222,11111222' 
TABS,ioos:station:wmo:42045:1,2009-05-04T16:30:00Z,26.2168,-96.4998,4.0,2.733861738,120.3171303,3.38,'11111222,11111222,11111222' 
TABS,ioos:station:wmo:42045:1,2009-05-04T17:00:00Z,26.2168,-96.4998,4.0,3.498070897,139.754328,4.46,'11111222,11111222,11111222' 
TABS,ioos:station:wmo:42045:1,2009-05-04T17:30:00Z,26.2168,-96.4998,4.0,2.616447974,135.6197039,3.26,'11111222,11111222,11111222' 
TABS,ioos:station:wmo:42045:1,2009-05-04T18:00:00Z,26.2168,-96.4998,4.0,2.450652974,129.5364857,3.09,'11111222,11111222,11111222' 
TABS,ioos:station:wmo:42045:1,2009-05-04T18:30:00Z,26.2168,-96.4998,4.0,2.336000856,118.6499634,2.95,'11111222,11111222,11111222' 